| time (UTC) | temp F | wind direction | speed knots | gust knots | rain 1hr in | rain 24hr in | rain mn in | humidity % | barometer mb |
| 20260505173015 | 51 | 96 | 0.0 | 2.6 | 0.00 | 0.00 | 0.00 | 70 | 1011.4 |
| 20260505171513 | 51 | 116 | 0.0 | 2.6 | 0.00 | 0.00 | 0.00 | 69 | 1011.5 |
| 20260505170012 | 51 | 117 | 0.9 | 3.5 | 0.00 | 0.00 | 0.00 | 68 | 1011.3 |
| 20260505164512 | 52 | 122 | 0.9 | 4.3 | 0.00 | 0.00 | 0.00 | 67 | 1011.2 |
| 20260505163011 | 53 | 117 | 1.7 | 5.2 | 0.00 | 0.00 | 0.00 | 67 | 1011.2 |
| 20260505161511 | 53 | 127 | 1.7 | 6.1 | 0.00 | 0.00 | 0.00 | 68 | 1011.2 |
| 20260505153009 | 54 | 100 | 0.9 | 6.1 | 0.00 | 0.00 | 0.00 | 67 | 1011.1 |
| 20260505151534 | 53 | 103 | 0.9 | 6.1 | 0.00 | 0.00 | 0.00 | 68 | 1010.9 |
| 20260505124613 | 58 | 67 | 0.9 | 4.3 | 0.00 | 0.00 | 0.00 | 46 | 1011.0 |
| 20260505123101 | 57 | 222 | 3.5 | 7.8 | 0.00 | 0.00 | 0.00 | 44 | 1011.1 |
| 20260505121557 | 56 | 12 | 2.6 | 7.0 | 0.00 | 0.00 | 0.00 | 45 | 1011.2 |
| 20260505120105 | 56 | 355 | 1.7 | 8.7 | 0.00 | 0.00 | 0.00 | 49 | 1011.1 |
| 20260505114558 | 56 | 311 | 0.9 | 5.2 | 0.00 | 0.00 | 0.00 | 52 | 1011.2 |
| 20260505113113 | 56 | 345 | 0.0 | 4.3 | 0.00 | 0.00 | 0.00 | 51 | 1011.2 |
| 20260505111555 | 56 | 131 | 0.0 | 1.7 | 0.00 | 0.00 | 0.00 | 53 | 1011.2 |
| 20260505101548 | 54 | 332 | 1.7 | 7.8 | 0.00 | 0.00 | 0.00 | 59 | 1011.4 |
| 20260505100047 | 56 | 5 | 4.3 | 8.7 | 0.00 | 0.00 | 0.00 | 57 | 1011.4 |
| 20260505094543 | 54 | 28 | 2.6 | 7.0 | 0.00 | 0.00 | 0.00 | 66 | 1011.6 |
| 20260505093043 | 53 | 327 | 1.7 | 7.8 | 0.00 | 0.00 | 0.00 | 66 | 1011.5 |
| 20260505091539 | 52 | 9 | 0.9 | 4.3 | 0.00 | 0.00 | 0.00 | 66 | 1011.4 |
| 20260505090036 | 52 | 32 | 1.7 | 7.0 | 0.00 | 0.00 | 0.00 | 66 | 1011.4 |
| 20260505084543 | 51 | 328 | 0.9 | 7.0 | 0.00 | 0.00 | 0.00 | 69 | 1011.5 |
| 20260505083028 | 51 | 355 | 3.5 | 7.8 | 0.00 | 0.00 | 0.00 | 70 | 1011.5 |
| 20260505081525 | 50 | 338 | 4.3 | 9.6 | 0.00 | 0.00 | 0.00 | 72 | 1011.4 |
| 20260505080024 | 49 | 360 | 6.1 | 9.6 | 0.00 | 0.00 | 0.00 | 73 | 1011.3 |
| 20260505074516 | 49 | 343 | 6.1 | 11.3 | 0.00 | 0.00 | 0.00 | 74 | 1011.3 |
| 20260505073012 | 48 | 5 | 7.8 | 12.2 | 0.00 | 0.00 | 0.00 | 77 | 1011.4 |
| 20260505071507 | 47 | 348 | 6.1 | 13.0 | 0.00 | 0.00 | 0.00 | 77 | 1011.2 |
| 20260505070004 | 47 | 355 | 7.8 | 13.9 | 0.00 | 0.00 | 0.00 | 77 | 1011.3 |
| 20260505064603 | 47 | 349 | 7.0 | 13.0 | 0.00 | 0.00 | 0.00 | 82 | 1011.1 |
| 20260505063102 | 46 | 344 | 6.1 | 12.2 | 0.00 | 0.00 | 0.00 | 88 | 1011.2 |
| 20260505061557 | 46 | 327 | 7.8 | 13.0 | 0.00 | 0.00 | 0.00 | 89 | 1011.3 |
| 20260505060057 | 46 | 324 | 7.8 | 11.3 | 0.00 | 0.00 | 0.00 | 94 | 1011.3 |
| 20260505054546 | 45 | 313 | 5.2 | 9.6 | 0.00 | 0.00 | 0.00 | 94 | 1011.2 |
| 20260505053106 | 44 | 289 | 4.3 | 9.6 | 0.00 | 0.00 | 0.00 | 95 | 1011.2 |
| 20260505051537 | 43 | 284 | 4.3 | 9.6 | 0.00 | 0.00 | 0.00 | 95 | 1011.0 |
| 20260505041521 | 40 | 285 | 5.2 | 8.7 | 0.00 | 0.01 | 0.00 | 94 | 1010.8 |
| 20260505040018 | 40 | 254 | 2.6 | 7.0 | 0.00 | 0.01 | 0.00 | 94 | 1010.8 |
| 20260505034524 | 39 | 237 | 2.6 | 6.1 | 0.00 | 0.01 | 0.00 | 94 | 1010.8 |
| 20260505033015 | 39 | 223 | 2.6 | 4.3 | 0.00 | 0.01 | 0.00 | 94 | 1010.9 |
| 20260505031515 | 39 | 254 | 4.3 | 7.0 | 0.00 | 0.01 | 0.00 | 94 | 1010.8 |
| 20260505030012 | 39 | 256 | 2.6 | 5.2 | 0.00 | 0.01 | 0.00 | 94 | 1011.0 |
| 20260505024511 | 39 | 246 | 2.6 | 6.1 | 0.00 | 0.02 | 0.00 | 93 | 1011.0 |
| 20260505023008 | 40 | 263 | 4.3 | 7.8 | 0.00 | 0.02 | 0.00 | 93 | 1011.1 |
| 20260505021504 | 40 | 263 | 3.5 | 7.8 | 0.00 | 0.02 | 0.00 | 93 | 1011.1 |
| 20260505020003 | 40 | 268 | 4.3 | 7.8 | 0.00 | 0.02 | 0.00 | 93 | 1011.2 |
| 20260505014503 | 40 | 272 | 4.3 | 7.0 | 0.00 | 0.05 | 0.00 | 93 | 1011.2 |
| 20260505013102 | 41 | 267 | 4.3 | 7.8 | 0.00 | 0.05 | 0.00 | 93 | 1011.3 |
| 20260505011611 | 41 | 264 | 2.6 | 7.0 | 0.00 | 0.05 | 0.00 | 93 | 1011.4 |
| 20260505010055 | 41 | 239 | 2.6 | 6.1 | 0.00 | 0.05 | 0.00 | 92 | 1011.5 |
| 20260505004603 | 41 | 241 | 1.7 | 6.1 | 0.00 | 0.09 | 0.00 | 92 | 1011.6 |
| 20260505003055 | 41 | 248 | 3.5 | 7.0 | 0.00 | 0.09 | 0.00 | 92 | 1011.8 |
| 20260505001605 | 42 | 246 | 1.7 | 6.1 | 0.00 | 0.09 | 0.00 | 92 | 1011.8 |
| 20260505000105 | 41 | 259 | 3.5 | 6.1 | 0.00 | 0.09 | 0.00 | 92 | 1011.6 |
| 20260504234547 | 42 | 254 | 1.7 | 4.3 | 0.00 | 0.10 | 0.00 | 91 | 1011.3 |
| 20260504233102 | 43 | 273 | 2.6 | 8.7 | 0.00 | 0.10 | 0.00 | 92 | 1011.4 |
| 20260504231545 | 42 | 285 | 4.3 | 8.7 | 0.00 | 0.10 | 0.00 | 91 | 1011.5 |
| 20260504230042 | 43 | 273 | 5.2 | 8.7 | 0.00 | 0.10 | 0.00 | 91 | 1011.5 |
| 20260504224543 | 43 | 300 | 6.1 | 10.4 | 0.00 | 0.11 | 0.00 | 91 | 1011.5 |
| 20260504223039 | 43 | 293 | 6.1 | 10.4 | 0.00 | 0.11 | 0.00 | 91 | 1011.6 |
| 20260504221535 | 42 | 306 | 4.3 | 7.8 | 0.00 | 0.11 | 0.00 | 90 | 1011.6 |
| 20260504220034 | 43 | 275 | 5.2 | 8.7 | 0.00 | 0.11 | 0.00 | 90 | 1011.7 |
| 20260504214529 | 43 | 274 | 5.2 | 8.7 | 0.00 | 0.17 | 0.11 | 89 | 1011.9 |
| 20260504213032 | 43 | 276 | 4.3 | 8.7 | 0.00 | 0.17 | 0.11 | 89 | 1011.8 |
| 20260504211525 | 43 | 279 | 4.3 | 8.7 | 0.00 | 0.17 | 0.11 | 89 | 1011.8 |
| 20260504210023 | 44 | 284 | 4.3 | 7.8 | 0.00 | 0.17 | 0.11 | 88 | 1011.9 |
| 20260504204524 | 44 | 269 | 5.2 | 8.7 | 0.00 | 0.27 | 0.11 | 88 | 1011.8 |
| 20260504203018 | 45 | 269 | 3.5 | 8.7 | 0.00 | 0.27 | 0.11 | 87 | 1011.8 |
| 20260504201516 | 45 | 275 | 5.2 | 9.6 | 0.00 | 0.27 | 0.11 | 86 | 1011.7 |
| 20260504200015 | 46 | 298 | 5.2 | 8.7 | 0.00 | 0.27 | 0.11 | 85 | 1011.8 |
| 20260504194513 | 47 | 305 | 5.2 | 8.7 | 0.00 | 0.27 | 0.11 | 84 | 1011.7 |
| 20260504193013 | 47 | 310 | 6.1 | 11.3 | 0.00 | 0.27 | 0.11 | 84 | 1011.7 |
| 20260504191516 | 47 | 302 | 3.5 | 9.6 | 0.00 | 0.27 | 0.11 | 84 | 1011.6 |
| 20260504190011 | 47 | 313 | 6.1 | 9.6 | 0.00 | 0.27 | 0.11 | 83 | 1011.5 |
| 20260504184510 | 48 | 301 | 6.1 | 11.3 | 0.00 | 0.28 | 0.11 | 83 | 1011.4 |
| 20260504183008 | 49 | 284 | 6.1 | 12.2 | 0.00 | 0.28 | 0.11 | 82 | 1011.4 |
| 20260504181507 | 49 | 281 | 7.0 | 13.0 | 0.00 | 0.28 | 0.11 | 81 | 1011.4 |
| 20260504180005 | 49 | 303 | 9.6 | 15.6 | 0.00 | 0.28 | 0.11 | 78 | 1011.3 |
| 20260504174507 | 50 | 293 | 9.6 | 13.9 | 0.00 | 0.28 | 0.11 | 77 | 1011.2 |